Regional Weather Roundup
Issued by NWS Charleston, SC

Current Version | Previous Version | Text Only | Print | Product List | Glossary Off
Versions: 1 2 3 4 5 6 7 8 9 10 11 12 13 14 15 16 17 18 19 20 21 22 23 24 25 26 27 28 29 30 31 32 33 34 35 36 37 38 39 40 41 42 43 44 45 46 47 48 49 50
000 ASUS42 KCHS 242012 RWRCHS REGIONAL WEATHER ROUNDUP NATIONAL WEATHER SERVICE CHARLESTON SC 400 PM EDT MON JUL 24 2017 NOTE: "FAIR" INDICATES FEW OR NO CLOUDS BELOW 12,000 FEET WITH NO SIGNIFICANT WEATHER AND/OR OBSTRUCTIONS TO VISIBILITY. NOT ALL STATIONS ARE QUALITY CONTROLLED. USE DATA WITH CAUTION... ESPECIALLY DEWPOINT OBSERVATIONS. SCZ027-030-031-034>040-042>050-242100- ...SOUTHEAST SOUTH CAROLINA... CITY SKY/WX TMP DP RH WIND PRES REMARKS N CHARLESTON PTSUNNY 85 75 72 SW13 29.96S HX 93 WATERFRONT PRK N/A 83 77 81 SW12 29.95F HX 92 JOHNS ISLAND MOCLDY 86 79 79 S14G21 29.96F HX 99 PINOPOLIS N/A 88 79 74 CALM 29.88F HX 102 MONCKS CORNER MOCLDY 86 75 70 SW12G17 29.95S HX 95 SUMMERVILLE MOCLDY 86 77 74 S8 29.96F HX 97 BEAUFORT MCAS MOSUNNY 92 77 61 SW10G18 29.95F HX 105 BEAUFORT ARPT FAIR 86 79 79 S9 29.95F HX 99 HILTON HEAD IS MOSUNNY 86 79 79 S12G23 29.97F HX 99 WALTERBORO CLOUDY 86 77 74 S9 29.95F HX 97 ALLENDALE NOT AVBL ...SOUTHERN MIDLANDS AND PEE DEE... CITY SKY/WX TMP DP RH WIND PRES REMARKS GEORGETOWN FAIR 88 77 70 SW9 29.95F HX 100 KINGSTREE MOCLDY 88 75 66 SW5 29.92F HX 97 ORANGEBURG CLOUDY 90 77 65 SE9 29.92F THUNDER HX 103 BARNWELL TSTM 82 77 83 NW16G25 29.94S HX 91 AIKEN TSTM 73 72 94 CALM 29.98F MANNING FAIR 88 75 66 NW10G18 29.92F HX 97 COLUMBIA TSTM 77 71 82 NW9 29.95R SUMTER PTSUNNY 89 76 66 W5 29.90F HX 99 FLORENCE CLOUDY 85 77 77 W6 29.93F HX 95 MYRTLE BEACH PTSUNNY 86 77 74 S17 29.94F HX 97 N MYRTLE BEACH MOSUNNY 84 77 79 S15 29.93S HX 94 $$ GAZ063-065-086>088-099>101-113>116-118-119-134>141-150-242100- ...SOUTHEAST GEORGIA... CITY SKY/WX TMP DP RH WIND PRES REMARKS SAVANNAH ARPT PTSUNNY 93 72 50 VRB5 29.95F HX 101 HUNTER AAF MOSUNNY 93 74 54 SW9 29.92F HX 102 FORT STEWART MOSUNNY 92 71 49 SW10 29.93F HX 99 STATESBORO SUNNY 92 73 52 SW7 29.94F HX 100 SYLVANIA PTCLDY 90 77 66 SW7 29.94F HX 103 CLAXTON FAIR 93 73 52 S6 29.95S HX 101 ...CSRA...CENTRAL AND FAR SOUTHEAST GEORGIA... CITY SKY/WX TMP DP RH WIND PRES REMARKS THOMSON CLOUDY 78 75 90 SW5 29.99F AUGUSTA-BUSH CLOUDY 79 74 84 CALM 29.92F AUGUSTA-DANIEL CLOUDY 77 71 82 CALM 29.94F SWAINSBORO CLOUDY 91 73 55 SW5 29.95F HX 100 VIDALIA MOSUNNY 93 73 52 SW5 29.95F HX 102 EASTMAN FAIR 94 55 27 SW6 29.97F HX 91 HAZLEHURST FAIR 91 76 61 SW7 29.94F HX 104 ALMA PTSUNNY 91 73 55 S6 29.95F HX 99 WAYCROSS MOSUNNY 91 82 75 S8 29.96F HX 113 JESUP NOT AVBL BAXLEY FAIR 91 79 66 W8 29.95F HX 107 BRUNSWICK CLOUDY 81 77 89 W3 29.98F SAINT SIMONS CLOUDY 85 77 77 SE9 29.98S HX 95 $$ SCZ027-028-034-036>038-045-046-048>050-GAZ119-141-242100- ...LAKE AND SUPPLEMENTAL COASTAL OBSERVATIONS... STATION/POSITION TIME TEMP WIND PRES WAVE SWELL AIR SEA DIR/SP/G HT/PER HT/PER/DIR (UTC) (F) (DEG/KT/KT) (MB) (FT/S) (FT/S/D) WINYAH BAY 1845 85 220/ 5 1014.0 LAKE MURRAY 1920 88 CALM / 5 1012.2 ACE BASIN NERRS NOT AVBL FORT PULASKI 1948 86 86 170/ 10/ 17 1014.8F SAPELO ISLAND 1900 92 200/ 12 1015.0 $$ ANZ835-935-AMZ111-154-330-350-352-354-370-450-454-472-242100- ...C-MAN AND BUOY OBSERVATIONS... STATION/POSITION TIME TEMP WIND PRES WAVE SWELL AIR SEA DIR/SP/G HT/PER HT/PER/DIR (UTC) (F) (DEG/KT/KT) (MB) (FT/S) (FT/S/D) BUOY 41004 1950 82 83 220/ 17/ 21 1014.6F 4/ 6 2/110/ 9 BUOY 41008 1950 81 81 170/ 16/ 17 1014.6F 3/ 9 2/100/ 9 FOLLY BEACH CMAN 1900 82 210/ 17/ 19 1015.7F CAPERS NEARSHORE 1908 80 84 230/ 14/ 19 1015.0F FRIPP NEARSHORE 1908 82 85 200/ 17/ 21 1014.7F STATION/POSITION TIME TEMP WIND PRES WAVE SWELL AIR SEA DIR/SP/G HT/PER HT/PER/DIR (UTC) (F) (DEG/KT/KT) (MB) (FT/S) (FT/S/D) 5E ST. MARYS GA 1930 78 N/A 2/ 9 FRYING PAN BUOY 1950 81 82 240/ 16/ 17 1014.1F 5/ 7 2/120/ 9 BUOY 41025 1950 83 84 230/ 21/ 25 1013.0F 7/ 7 CAPE LOOKOUT NC 1900 83 210/ 12/ 16 1013.1F BUOY 41002 1850 83 83 210/ 17/ 19 1018.0 5/ 6 2/110/ 9 BUOY 41010 1950 84 84 170/ 10/ 12 1018.1F 3/ 9 2/110/ 9 ST AUGUSTINE FL 2000 87 77 190/ 14/ 17 1016.3F $$

USA.gov is the U.S. government's official web portal to all federal, state and local government web resources and services.